User: anonymous   Login
Location: Unspecified
(0.0000°N, 0.0000°E)
Time: 19:41:53
(UTC+00:00)
Language:

Quakesat - Orbit

View from above orbital plane
View from above orbital plane
View from above satellite
View from above satellite

Ground track
Ground track

The orbit data is extracted from the following two-line orbital elements,

1 27845U 03031F   19077.50357613 +.00000078 +00000-0 +54700-4 0  9992
2 27845 098.6874 088.3852 0008243 326.8862 033.1799 14.22181069815039
Epoch (UTC): 18 March 2019 12:05:08
Eccentricity: 0.0008243
inclination: 98.6874°
perigee height: 812 km
apogee height: 824 km
right ascension of ascending node: 88.3852°
argument of perigee: 326.8862°
revolutions per day: 14.22181069
mean anomaly at epoch: 33.1799°
orbit number at epoch: 81503

The dashed part of the orbit path shows where the satellite is in the earth's shadow,  

DLR